Regional Weather Roundup
Issued by NWS Pendleton, OR

Home | Current Version | Previous Version | Text Only | Print | Product List | Glossary On
Versions: 1 2 3 4 5 6 7 8 9 10 11 12 13 14 15 16 17 18 19 20 21 22 23 24 25 26 27 28 29 30 31 32 33 34 35 36 37 38 39 40 41 42 43 44 45 46 47 48 49 50
000
ASUS46 KPDT 210225
RWRPDT
PENDLETON REGIONAL WEATHER ROUNDUP
NATIONAL WEATHER SERVICE PENDLETON OREGON
700 PM PDT MON OCT 20 2014

NOTE: FAIR INDICATES FEW OR NO CLOUDS BELOW 12,000 FEET WITH NO
SIGNIFICANT WEATHER AND/OR OBSTRUCTIONS TO VISIBILITY.

# INDICATES UNOFFICIAL STATION AND DATA

WAZ520-210310-
EAST SLOPES OF WASHINGTON CASCADES

CITY            SKY/WX      TMP DP  RH  WIND    PRES   REMARKS
#BUMPING DAM    N/A         45  N/A N/A W8      N/A
#CLE ELUM HS    N/A         51  50  96  CALM    29.76R
#CLE ELUM 2NW   N/A         49  49  100 SW1     N/A
#CLE ELUM LAKE  N/A         N/A N/A N/A E2      29.71F
#CLIFFDEL 2NW   N/A         47  46  96  N3      N/A
#GLENWOOD       N/A         50  47  89  S1      29.78S
#MANASTASH CYN  N/A         48  45  89  CALM    29.77R
#NELSON         N/A         50  49  96  CALM    29.77F
#NELSON 3SW     N/A         47  46  96  CALM    29.94F
#NILE           N/A         49  48  96  CALM    29.03R
#RONALD 2NW     N/A         48  46  93  E1      29.67S
#SNOWDEN        N/A         52  49  89  CALM    N/A
#TEANAWAY 4NE   N/A         50  50  100 SW1     N/A
#TROUT LAKE HS  N/A         52  51  96  SW1     N/A
#TROUT LAKE 1NE N/A         51  49  93  CALM    29.78R
$$

WAZ521-210310-
SIMCOE HIGHLANDS

CITY            SKY/WX      TMP DP  RH  WIND    PRES   REMARKS
#BICKLETON HS   N/A         47  43  86  SW3     29.91R
#CENTERVILLE 4W N/A         52  47  83  CALM    29.57S
#CENTERVILLE 1SWN/A         50  46  86  CALM    29.78S
#GOLDENDALE     N/A         53  49  86  W2      N/A
#GOLDENDALE 1NE N/A         51  49  93  CALM    N/A
#GOLDENDALE 1S  N/A         51  48  89  S1      29.79R
#GOLDENDALE 5WNWN/A         51  48  89  CALM    29.78R
#GOODNOE HILLS  N/A         52  50  93  CALM    29.76R
#LYLE 6NE       N/A         52  49  89  CALM    29.76R
$$

WAZ026-210310-
KITTITAS VALLEY

CITY            SKY/WX      TMP DP  RH  WIND    PRES   REMARKS
ELLENSBURG AP   CLOUDY      54  50  86  SW3     29.76S
#ELLENSBURG CWU N/A         53  51  93  CALM    29.72R
#ELLENSBURG 3NE N/A         51  49  93  CALM    29.78S
#ELLENSBURG     N/A         56  56  100 CALM    N/A
#KITTITAS 3S    N/A         51  49  93  CALM    29.74S
#THORP 6N       N/A         49  48  96  N2      29.76F
$$

WAZ027-210310-
YAKIMA VALLEY

CITY            SKY/WX      TMP DP  RH  WIND    PRES   REMARKS
SUNNYSIDE AP    LGT RAIN    52  50  93  SE12    29.81R
YAKIMA AIRPORT  CLOUDY      55  48  77  E13     29.77S
YAKIMA-VAGABOND MOCLDY      53  47  80  S2      29.78S
#COWICHE 1N     N/A         52  48  86  CALM    29.94S
#DONALD 2NE     N/A         53  49  86  N3      30.11S
#GRANDVIEW      N/A         52  49  89  SE1     29.81S
#MABTON         N/A         54  51  90  E1      29.80S
#MOXEE 2E       N/A         54  44  69  E8      29.75R
#NACHES 2SW     N/A         52  50  93  CALM    29.75S
#OUTLOOK DOT    N/A         N/A N/A N/A E6      N/A
#SELAH 8E       N/A         50  45  83  S6      N/A
#TERRACE HTS    N/A         52  49  89  CALM    29.74R
#TOPPENISH      N/A         54  49  83  SE3     29.70F
#WAPATO 4NE     N/A         53  49  86  N3      30.11S
#WEST VALLEY    N/A         53  49  86  CALM    29.75R
#W YAKIMA       N/A         53  49  86  CALM    29.77R
#WHITE SWAN 5E  N/A         55  51  86  N1      29.76F
#WILEY CITY 3W  N/A         49  35  58  CALM    29.96S
$$

WAZ028-210310-
LOWER COLUMBIA BASIN...WASHINGTON

CITY            SKY/WX      TMP DP  RH  WIND    PRES   REMARKS
PASCO           LGT RAIN    59  49  69  W13     29.82R
PROSSER AWOS    N/A         54  52  93  E5      29.84
RICHLAND AWOS   LGT DRIZZLE 59  48  67  CALM    29.82R
#BASIN CITY 5SW N/A         58  49  72  W7      29.81R
#BENTON CITY    N/A         56  48  74  SW2     29.72S
#CONNELL 5N     N/A         58  49  72  W10     29.78R
#CONNELL 5NW    N/A         58  50  75  W7      29.76R
#ELTOPIA        N/A         60  50  69  CALM    29.78R
#ELTOPIA 6NW    N/A         58  47  67  W8      28.79R
#KENNEWICK 3S   N/A         56  48  74  SW2     29.80S
#PASCO-BROADMOORN/A         59  50  72  S3      29.71R
#PATERSON       N/A         54  52  93  CALM    29.81R
#PROSSER        N/A         54  46  74  S6      29.81R
#SAGEMOOR 2W    N/A         59  49  69  SW12    29.66R
#TOUCHET 2S     N/A         60  48  64  W13     29.79S
#WEST PASCO     N/A         60  49  67  SW1     29.80R
$$

WAZ029-210310-
FOOTHILLS OF THE BLUES...WASHINGTON

CITY            SKY/WX      TMP DP  RH  WIND    PRES   REMARKS
WALLA WALLA AP  CLOUDY      62  45  54  SW15    29.83R
#LOWDEN 2SE     N/A         60  49  67  W10     29.79R
#PLEASANT VIEW 1N/A         59  49  69  W5      29.80R
#PRESCOTT       N/A         62  51  67  W3      29.78R
#SUDBURY        N/A         60  N/A N/A CALM    N/A
#WHITMAN COLLEGEN/A         59  47  64  SW14    29.87R
#WAITSBURG 8N   N/A         58  37  45  S8      29.76R
#WALLA WALLA 5E N/A         60  46  60  CALM    N/A
#WALLA WALLA U  N/A         64  49  58  CALM    29.79R
#WHITMAN MISSIONN/A         61  48  62  W8      29.83R
$$

WAZ030-210310-
BLUE MOUNTAINS...WASHINGTON

CITY            SKY/WX      TMP DP  RH  WIND    PRES   REMARKS
$$

ORZ009-041-WAZ024-210310-
COLUMBIA RIVER GORGE

CITY            SKY/WX      TMP DP  RH  WIND    PRES   REMARKS
HOOD RIVER AP   CLOUDY      55  54  96  CALM    29.81S
THE DALLES AP   MOCLDY      55  52  90  NW3     29.81R
#ARLINGTON AIRPON/A         53  51  93  CALM    29.99R
#ARLINGTON HS   N/A         55  52  90  CALM    29.73R
#CELILO DOT     N/A         56  50  80  S2      N/A
#LYLE           N/A         58  55  90  NE1     29.81R
#MARYHILL 2W    N/A         56  53  90  CALM    N/A
#MOSIER 1S      N/A         53  50  89  CALM    N/A
#MURDOCK        N/A         58  54  87  CALM    29.81S
#RUFUS DOT      N/A         57  51  80  N17G29  N/A

$$

ORZ510-210310-
NORTH CENTRAL OREGON

CITY            SKY/WX      TMP DP  RH  WIND    PRES   REMARKS
#CHENOWITH 1W   N/A         50  49  96  S1      N/A
#COW CYN RST AREN/A         48  43  83  SW2     N/A
#DUFUR 9E       N/A         51  46  83  SW6     29.82F
#GRASS VALLEY   N/A         49  48  96  CALM    N/A
#GRASS VALLEY 1SN/A         49  46  89  CALM    29.83S
#KENT DOT       N/A         47  44  89  SW6     N/A
#MAUPIN SCHOOL  N/A         56  50  80  CALM    28.70F
#MORO SCHOOL    N/A         50  50  100 CALM    29.83F
#SHANIKO 5WSW   N/A         45  40  82  SW3     N/A
#SHANIKO 4NW    N/A         45  43  93  SW7     29.83F
#TYGH VALLEY 2NEN/A         53  47  80  CALM    29.80S
#WAPANITIA AIRPON/A         51  47  86  CALM    29.81F
#WASCO DOT      N/A         51  47  86  SE3     N/A
#WASCO 5NE      N/A         50  47  89  CALM    29.79F
$$

ORZ511-210310-
CENTRAL OREGON

CITY            SKY/WX      TMP DP  RH  WIND    PRES   REMARKS
BEND AIRPORT    CLOUDY      46  45  96  CALM    29.87R
MADRAS AIRPORT  MOCLDY      50  45  83  S3      29.85S
PRINEVILLE AP   CLOUDY      46  46  100 CALM    29.86R
REDMOND AIRPORT CLOUDY      47  43  86  E5      29.84R
#BEND 6E        N/A         48  42  80  CALM    29.78R
#BEND 1SW       N/A         47  42  83  CALM    N/A
#BEND-KIM LN    N/A         50  45  83  NW1     29.82R
#CROOKED RVR RANN/A         50  45  83  W24G37  29.79R
#CULVER         N/A         51  44  77  CALM    29.80R
#LAKE BILLY CHINN/A         52  27  38  S5      29.91R
#POWELL BUTTE 3EN/A         49  44  83  E5      N/A
#POWELL BUTTE   N/A         47  42  83  E2      29.51R
#PRINEVILLE 3N  N/A         47  44  89  CALM    29.76R
#WARM SPRINGS   N/A         55  48  77  CALM    29.81R


ORZ509-210310-
EAST SLOPES OF OREGON CASCADES

CITY            SKY/WX      TMP DP  RH  WIND    PRES   REMARKS
#BLUE BOX PASS  N/A         43  -7  11  NW2     N/A
#CAMP SHERMAN   N/A         49  40  71  CALM    29.82R
#LA PINE DOT    N/A         44  35  70  W6      N/A
#LA PINE 4NW    N/A         44  36  73  CALM    29.84R
#LAVA BUTTE DOT N/A         42  40  93  CALM    N/A
#SISTERS AIRPOR N/A         52  45  77  N5      29.91S
#SISTERS ODOT   N/A         50  N/A N/A NE1     N/A
#SISTERS 3N     N/A         50  39  66  CALM    29.86S
#SUNRIVER       N/A         45  41  86  SW3     29.71R
#SUNRIVER AP    N/A         45  42  89  W5      29.76R
#SUTTLE LK DOT  N/A         40  40  100 W20G29  N/A    WCI 30
#TUMALO 3W      N/A         46  43  89  CALM    29.65S
#WANOGA BUTTE D N/A         37  34  89  NW3     N/A

$$

ORZ044-210310-
LOWER COLUMBIA BASIN...OREGON

CITY            SKY/WX      TMP DP  RH  WIND    PRES   REMARKS
HERMISTON       LGT RAIN    55  52  90  SW5     29.84S
#BOARDMAN SCHOOLN/A         58  53  83  CALM    29.83R
#BOARDMAN 3W    N/A         58  53  83  E1      29.53S
#BOARDMAN 8SW   N/A         55  52  90  SW1     29.82R
#ECHO 8SW       N/A         55  48  77  CALM    29.81R
#IONE SCHOOL    N/A         54  42  64  NE7     29.81F
#IRRIGON 4NW    N/A         57  53  86  S2      N/A
#UMATILLA SCHOOLN/A         54  54  100 CALM    29.89S
#UMATILLA       N/A         57  50  77  CALM    29.81S
$$

ORZ507-210310-
NORTHERN FOOTHILLS OF THE BLUES

CITY            SKY/WX      TMP DP  RH  WIND    PRES   REMARKS
PENDLETON AIRPT CLOUDY      54  47  77  W16     29.84R
#ADAMS 3WNW     N/A         54  48  80  W12     29.83R
#ATHENA         N/A         55  48  77  W7      29.86R
#CAYUSE         N/A         55  47  74  W12     29.83R
#HELIX SCHOOL   N/A         54  48  80  W14G26  29.81R
#HELIX 3N       N/A         53  46  77  N16G29  29.81R
#HELIX 6SW      N/A         53  48  83  W13     29.84R
#HOLDMAN 6E     N/A         53  48  83  NE12    29.63R
#M-F FERNDALE   N/A         62  46  56  SW1     29.83R
#M-F GROVE ELEM N/A         60  44  55  W8      29.84R
#M-FREEWATER 5SEN/A         59  47  64  SW7     29.85R
#PENDLETON DNTN N/A         57  41  55  CALM    28.64S
#PDT AQUATIC CTRN/A         57  42  57  W3      29.85R
#PDT SUNRIDGE   N/A         55  46  72  W3      29.86R
#PENDLETON 7NW  N/A         55  48  77  W8      27.31R
#PILOT ROCK     N/A         54  40  59  S2      29.88S
#TUTUILLA       N/A         55  43  64  SW2     29.86R
#UMAPINE 2E     N/A         60  48  64  W5      29.82R
#WESTON SCHOOL  N/A         54  44  69  N9      29.83R

$$

ORZ508-210310-
SOUTHERN FOOTHILLS OF THE BLUES

CITY            SKY/WX      TMP DP  RH  WIND    PRES   REMARKS
LEXINGTON       LGT DRIZZLE 52  48  86  E10     29.85F
#AJAX           N/A         50  43  77  CALM    29.77F
#CONDON SCHOOL  N/A         47  45  93  CALM    29.81S
#HEPPNER EOC    N/A         50  47  89  E5      29.78S
#HEPPNER 4NE    N/A         47  45  93  CALM    29.80S
#LEXINGTON 2SE  N/A         53  49  86  SE6     29.81F
#MIKKALO        N/A         52  48  86  SE1     29.81S
#OLEX 4N        N/A         53  51  93  CALM    29.82S
#RUGGS 5NE      N/A         47  46  96  S2      30.01S
#RUGGS 2SW      N/A         47  45  93  E7      29.80F

$$

ORZ502-503-210310-
BLUE MOUNTAINS

CITY            SKY/WX      TMP DP  RH  WIND    PRES   REMARKS
MEACHAM         CLOUDY      46  40  79  CALM    29.88R
#BATTLE MTN DOT N/A         42  42  100 N2      N/A
#HEPPNER 15SE   N/A         42  40  93  CALM    29.77R
#LADD CYN SMT   N/A         50  40  68  W18     N/A
#LADD CREEK ODOTN/A         53  44  71  SW7     N/A
#N POWDER DOT   N/A         54  46  74  N16     N/A
#PIKES PEAK     N/A         49  43  80  SW15    27.99S WCI 43
#UKIAH          N/A         47  41  79  CALM    29.87R
#WESTON 4E      N/A         49  44  83  SW8     29.72R
$$

ORZ505-210310-
JOHN DAY BASIN

CITY            SKY/WX      TMP DP  RH  WIND    PRES   REMARKS
JOHN DAY        CLOUDY      50  45  83  NW7     29.89R
#JOHN DAY KJDY  N/A         55  48  77  SW6     30.01R
#DAYVILLE SCHOOLN/A         50  46  86  S3      29.87R
#MT. VERNON 5SE N/A         48  42  80  CALM    29.84R
#WINLOCK        N/A         46  44  93  CALM    29.95F
$$

ORZ506-210310-
OCHOCO AND JOHN DAY HIGHLANDS

CITY            SKY/WX      TMP DP  RH  WIND    PRES   REMARKS
#BUCK CREEK DOT N/A         46  46  100 W6      N/A
#HORSE RIDGE DO N/A         45  39  79  CALM    N/A
#KEYES SMT DOT  N/A         43  40  89  W18     N/A    WCI 35
#PAULINA SCHOOL N/A         47  44  89  N1      29.87S
#PINE MTN OBS   N/A         39  34  82  SW1     N/A
#PRAIRIE CITY   N/A         49  43  80  W6      29.86R
#SENECA         N/A         51  N/A N/A NW2     N/A
#SENECA 9NW     N/A         49  42  77  W1      29.81R
$$

ORZ049-210310-
GRANDE RONDE VALLEY

CITY            SKY/WX      TMP DP  RH  WIND    PRES   REMARKS
LA GRANDE       MOCLDY      54  36  50  W24G32  29.81R
#COVE           N/A         54  47  77  SW5     29.72R
#COVE SCHOOL    N/A         54  45  71  W3      29.79R
#COVE 6NW       N/A         55  44  66  W5      29.80R
#ELGIN 3N       N/A         54  41  61  NW7     29.55R
#ELGIN 1E       N/A         56  44  64  CALM    N/A
#IMBLER SCHOOL  N/A         63  35  35  SW3     29.84S
#ISLAND CITY 4N N/A         56  55  96  CALM    29.79R
#LADD CYN DOT   N/A         54  42  64  NW10    N/A
#UNION 1S       N/A         55  45  69  NW3     29.61R
$$

ORZ050-210310-
WALLOWA COUNTY

CITY            SKY/WX      TMP DP  RH  WIND    PRES   REMARKS
JOSEPH AIRPORT  CLOUDY      55  41  59  N12     29.78R
#ENTERPRISE HS  N/A         60  43  53  VRB2    29.78R
#IMNAHA 10S     N/A         63  30  29  SW6     29.73S
#JOSEPH 3N      N/A         56  35  45  N7      29.81R
#JOSEPH 3W      N/A         53  42  66  N2      29.67R
#LOSTINE        N/A         56  44  64  NW7     29.52R
#MT HOWARD 8000 N/A         48  N/A N/A S16G31  29.90F WCI 42
#PROMISE 1S     N/A         56  45  66  SE9     29.83R
#SHEEP RDG 7000 N/A         51  24  34  CALM    29.61S
#WALLOWA SCHOOL N/A         57  45  64  NE2     30.68R



$$



USA.gov is the U.S. government's official web portal to all federal, state and local government web resources and services.